DW4070 Weather Reports


time (UTC)temp
C
wind
direction
speed
KPH
gust
KPH
rain 1hr
cm
rain 24hr
cm
rain mn
cm
humidity
%
barometer
mb
20260508033034 6 51 0.0 0.0 0.00 0.56 0.56 84 1011.0
20260508031532 6 51 0.0 0.0 0.00 0.56 0.56 83 1011.0
20260508030031 6 51 0.0 0.0 0.00 0.56 0.56 81 1011.1
20260508024535 6 51 0.0 0.0 0.00 0.56 0.56 79 1011.0
20260508023028 7 51 0.0 0.0 0.00 0.56 0.56 78 1010.9
20260508021532 7 51 0.0 0.0 0.00 0.56 0.56 76 1010.9
20260508020020 7 51 0.0 0.0 0.00 0.61 0.56 74 1010.8
20260508014518 8 51 0.0 0.0 0.00 0.61 0.56 72 1010.9
20260508013024 8 51 0.0 0.0 0.00 0.61 0.56 68 1010.8
20260508011515 9 51 0.0 0.0 0.00 0.61 0.56 65 1010.6
20260508010015 10 51 0.0 0.0 0.00 0.61 0.56 62 1010.5
20260508004521 10 51 0.0 0.0 0.00 0.61 0.56 58 1010.3
20260508003010 11 51 0.0 0.0 0.00 0.61 0.56 55 1010.0
20260508001517 12 51 0.0 0.0 0.00 0.61 0.56 53 1009.7
20260508000010 12 51 0.0 0.0 0.00 0.61 0.56 51 1009.8
20260507234510 13 51 0.0 0.0 0.00 0.61 0.56 52 1009.6
20260507233010 14 51 0.0 0.0 0.00 0.61 0.56 49 1009.4
20260507231508 15 5 0.0 1.6 0.00 0.61 0.56 43 1009.3
20260507230006 15 14 0.0 3.2 0.00 0.61 0.56 41 1009.1
20260507224505 15 22 0.0 4.8 0.00 0.61 0.56 42 1009.0
20260507223006 15 59 0.0 3.2 0.00 0.61 0.56 39 1009.0
20260507221510 15 59 0.0 6.4 0.00 0.61 0.56 36 1009.1
20260507220004 16 61 1.6 4.8 0.00 0.61 0.56 37 1009.0
20260507214503 16 286 0.0 3.2 0.00 0.61 0.56 45 1008.9
20260507213003 15 45 1.6 4.8 0.00 0.61 0.56 36 1008.8
20260507211502 16 90 0.0 8.0 0.00 0.61 0.56 35 1008.8
20260507210002 16 34 0.0 11.3 0.00 0.61 0.56 35 1008.8
20260507204500 16 86 0.0 8.0 0.00 0.61 0.56 34 1008.7
20260507203103 16 78 0.0 6.4 0.00 0.61 0.56 34 1008.6
20260507201600 16 274 1.6 6.4 0.00 0.61 0.56 34 1008.6
20260507200056 17 274 1.6 4.8 0.00 0.61 0.56 34 1008.7
20260507194628 17 275 3.2 8.0 0.00 0.64 0.56 34 1008.9
20260507193052 17 199 1.6 6.4 0.00 0.64 0.56 41 1009.0
20260507191552 17 27 3.2 6.4 0.00 0.64 0.56 39 1009.3
20260507190049 17 265 0.0 6.4 0.00 0.64 0.56 38 1009.5
20260507184550 17 53 4.8 9.7 0.00 0.66 0.56 36 1009.6
20260507183045 17 268 1.6 6.4 0.00 0.66 0.56 38 1009.9
20260507181544 17 267 0.0 8.0 0.00 0.66 0.56 36 1009.9
20260507180043 17 265 1.6 6.4 0.00 0.66 0.56 38 1010.1
20260507174548 17 284 3.2 6.4 0.00 0.71 0.56 40 1010.2
20260507173041 17 46 1.6 6.4 0.00 0.71 0.56 38 1010.5
20260507171546 16 9 1.6 3.2 0.00 0.71 0.56 43 1010.6
20260507170040 16 118 3.2 11.3 0.00 0.71 0.56 38 1011.0
20260507164535 16 285 0.0 8.0 0.00 0.76 0.56 50 1011.1
20260507163034 16 265 0.0 6.4 0.00 0.76 0.56 47 1011.4
20260507161539 16 265 1.6 4.8 0.00 0.76 0.56 43 1011.4
20260507160030 15 265 1.6 6.4 0.00 0.76 0.56 45 1011.7
20260507154534 15 63 1.6 8.0 0.00 0.76 0.56 43 1011.7
20260507153037 15 309 0.0 4.8 0.00 0.76 0.56 49 1012.0
20260507151525 14 9 1.6 6.4 0.00 0.76 0.56 49 1012.1
20260507150024 14 17 0.0 6.4 0.00 0.76 0.56 61 1012.1
20260507144518 13 284 1.6 4.8 0.00 0.76 0.56 60 1012.0
20260507143023 12 9 1.6 4.8 0.00 0.76 0.56 65 1012.0
20260507141516 12 53 1.6 6.4 0.00 0.76 0.56 65 1012.1
20260507140015 11 23 1.6 8.0 0.00 0.76 0.56 69 1012.0
20260507134514 11 39 1.6 4.8 0.00 0.76 0.56 76 1012.4
20260507133013 10 49 0.0 3.2 0.00 0.76 0.56 80 1012.2
20260507131517 11 349 0.0 3.2 0.00 0.76 0.56 85 1012.2
20260507130021 10 28 0.0 4.8 0.00 0.76 0.56 84 1012.1
20260507124511 10 26 0.0 3.2 0.00 0.76 0.56 88 1012.3
20260507123010 9 32 0.0 0.0 0.00 0.76 0.56 91 1012.1
20260507121507 9 32 0.0 0.0 0.00 0.76 0.56 92 1012.1
20260507120005 9 61 0.0 3.2 0.00 0.76 0.56 93 1012.2
20260507114503 9 61 0.0 0.0 0.00 0.76 0.56 94 1011.9
20260507113001 9 61 0.0 0.0 0.00 0.76 0.56 94 1011.6
20260507111603 9 61 0.0 0.0 0.00 0.76 0.56 94 1011.7
20260507110059 9 61 0.0 0.0 0.00 0.76 0.56 94 1011.3
20260507104556 9 61 0.0 0.0 0.00 0.76 0.56 94 1011.2
20260507103053 9 61 0.0 0.0 0.03 0.76 0.56 94 1010.9
20260507101555 9 61 0.0 0.0 0.03 0.76 0.56 94 1010.7
20260507100050 9 61 0.0 0.0 0.08 0.76 0.56 94 1010.7
20260507094549 10 61 0.0 0.0 0.10 0.76 0.56 94 1010.6
20260507093053 10 56 0.0 3.2 0.15 0.71 0.53 93 1010.4
20260507091547 10 243 0.0 0.0 0.20 0.71 0.53 94 1010.4
20260507090045 10 236 0.0 0.0 0.20 0.69 0.48 94 1010.3
20260507084547 10 115 0.0 0.0 0.20 0.66 0.46 94 1010.3
20260507083044 10 115 0.0 0.0 0.15 0.58 0.38 93 1010.3
20260507081543 10 115 0.0 0.0 0.10 0.51 0.30 93 1010.5
20260507080042 10 115 0.0 0.0 0.18 0.48 0.28 93 1010.6
20260507074541 10 115 0.0 0.0 0.20 0.46 0.25 93 1010.5
20260507073040 10 118 0.0 0.0 0.18 0.43 0.23 93 1010.4
20260507071600 10 118 0.0 0.0 0.18 0.41 0.20 92 1010.2
20260507070037 10 118 0.0 0.0 0.10 0.30 0.10 91 1010.6
20260507064533 11 121 0.0 0.0 0.05 0.25 0.05 91 1010.0
20260507063034 11 121 0.0 0.0 0.05 0.25 0.05 90 1009.8
20260507061530 11 196 0.0 0.0 0.03 0.23 0.03 90 1010.3
20260507060030 11 183 0.0 0.0 0.00 0.20 0.00 89 1010.0
20260507054524 12 67 0.0 0.0 0.00 0.20 0.00 89 1009.5
20260507053022 12 67 0.0 0.0 0.00 0.20 0.00 88 1009.7
20260507051528 12 68 0.0 1.6 0.00 0.20 0.00 89 1009.8
20260507050020 12 51 0.0 0.0 0.00 0.20 0.00 90 1009.6
20260507044515 13 38 0.0 1.6 0.00 0.20 0.00 91 1009.8
20260507043014 13 50 0.0 0.0 0.00 0.20 0.00 92 1009.8
20260507041512 13 43 0.0 1.6 0.00 0.20 0.00 92 1009.8
20260507040009 13 127 0.0 0.0 0.00 0.20 0.20 93 1009.6
20260507034519 13 149 0.0 0.0 0.00 0.20 0.20 94 1009.2